Terug naar catalogus

STARLINK-3832

ActiefCommunicatieVLEO
NORAD 52646·PAYLOAD·🇺🇸 United States

Gelanceerd May 14, 2022 vanaf Cape Canaveral Space Force Station

Loading…

Volgende Passages (komende 24 uur)

TLE

VersSource: CelesTrak SupGP

Epoch: Sep 15, 2026, 01:45 UTC

1 52646C 22052BA  26258.07340278  .00051936  00000+0  15760-2 0  2580
2 52646  53.1565 117.1193 0001358  86.2588  96.5325 15.33520967    19

Volg STARLINK-3832 in realtime met AllMySat

Download on the App Store